Stündliche Wetter Brüssel

Heute, 14 April, Mittwoch

Zeit Temperatur Niederschläge Wind Luftdruck Luftfeuchtigkeit
00:00 +2°C° 0 mm 1 m/S 771 mmHg 64%
01:00 +2°C° 0 mm 1 m/S 770 mmHg 65%
02:00 +1°C° 0 mm 1 m/S 770 mmHg 66%
03:00 0°C° 0 mm 0 m/S 770 mmHg 68%
04:00 +1°C° 0 mm 0 m/S 770 mmHg 67%
05:00 +1°C° 0 mm 0 m/S 770 mmHg 67%
06:00 +2°C° 0 mm 0 m/S 770 mmHg 66%
07:00 +5°C° 0 mm 1 m/S 770 mmHg 60%
08:00 +6°C° 0 mm 1 m/S 770 mmHg 54%
09:00 +8°C° 0 mm 1 m/S 770 mmHg 48%
10:00 +8°C° 0 mm 2 m/S 770 mmHg 46%
11:00 +8°C° 0 mm 2 m/S 769 mmHg 44%
12:00 +9°C° 0 mm 3 m/S 769 mmHg 42%
13:00 +9°C° 0 mm 3 m/S 769 mmHg 44%
14:00 +8°C° 0 mm 4 m/S 769 mmHg 45%
15:00 +8°C° 0 mm 5 m/S 768 mmHg 46%
16:00 +7°C° 0.1 mm 5 m/S 768 mmHg 53%
17:00 +6°C° 0.1 mm 4 m/S 769 mmHg 60%
18:00 +5°C° 0.1 mm 4 m/S 769 mmHg 67%
19:00 +4°C° 0 mm 4 m/S 769 mmHg 72%
20:00 +3°C° 0 mm 3 m/S 769 mmHg 76%
21:00 +2°C° 0 mm 3 m/S 770 mmHg 81%
22:00 +1°C° 0 mm 3 m/S 770 mmHg 83%
23:00 +1°C° 0 mm 3 m/S 770 mmHg 86%

Morgen, 15 April, Donnerstag

Zeit Temperatur Niederschläge Wind Luftdruck Luftfeuchtigkeit
00:00 +1°C° 0 mm 2 m/S 770 mmHg 88%
01:00 +1°C° 0 mm 2 m/S 769 mmHg 89%
02:00 +1°C° 0 mm 2 m/S 769 mmHg 90%
03:00 +1°C° 0 mm 2 m/S 769 mmHg 91%
04:00 +1°C° 0 mm 2 m/S 769 mmHg 90%
05:00 +3°C° 0 mm 1 m/S 769 mmHg 89%
06:00 +3°C° 0 mm 1 m/S 769 mmHg 88%
07:00 +4°C° 0 mm 1 m/S 769 mmHg 83%
08:00 +6°C° 0 mm 1 m/S 769 mmHg 79%
09:00 +6°C° 0 mm 2 m/S 769 mmHg 75%
10:00 +7°C° 0.2 mm 2 m/S 769 mmHg 68%
11:00 +8°C° 0.2 mm 2 m/S 769 mmHg 62%
12:00 +9°C° 0.2 mm 3 m/S 768 mmHg 55%
13:00 +9°C° 0.1 mm 3 m/S 768 mmHg 54%
14:00 +8°C° 0.1 mm 4 m/S 768 mmHg 53%
15:00 +8°C° 0.1 mm 4 m/S 768 mmHg 53%
16:00 +7°C° 0 mm 4 m/S 768 mmHg 56%
17:00 +7°C° 0 mm 3 m/S 768 mmHg 60%
18:00 +7°C° 0 mm 3 m/S 768 mmHg 64%
19:00 +5°C° 0 mm 3 m/S 768 mmHg 67%
20:00 +4°C° 0 mm 3 m/S 768 mmHg 70%
21:00 +3°C° 0 mm 3 m/S 768 mmHg 72%
22:00 +2°C° 0 mm 3 m/S 768 mmHg 74%
23:00 +2°C° 0 mm 3 m/S 768 mmHg 75%

übermorgen, 16 April, Freitag

Zeit Temperatur Niederschläge Wind Luftdruck Luftfeuchtigkeit
00:00 +1°C° 0 mm 3 m/S 768 mmHg 76%
01:00 +1°C° 0 mm 3 m/S 768 mmHg 78%
02:00 0°C° 0 mm 3 m/S 768 mmHg 80%
03:00 +1°C° 0 mm 2 m/S 768 mmHg 82%
04:00 +1°C° 0 mm 2 m/S 768 mmHg 82%
05:00 +2°C° 0 mm 2 m/S 768 mmHg 82%
06:00 +1°C° 0 mm 3 m/S 768 mmHg 81%
07:00 +3°C° 0 mm 3 m/S 768 mmHg 72%
08:00 +5°C° 0 mm 4 m/S 768 mmHg 62%
09:00 +7°C° 0 mm 4 m/S 768 mmHg 52%
10:00 +8°C° 0 mm 5 m/S 768 mmHg 49%
11:00 +8°C° 0 mm 5 m/S 767 mmHg 47%
12:00 +9°C° 0 mm 5 m/S 767 mmHg 44%
13:00 +9°C° 0 mm 5 m/S 767 mmHg 45%
14:00 +9°C° 0 mm 5 m/S 766 mmHg 46%
15:00 +10°C° 0 mm 5 m/S 766 mmHg 47%
16:00 +10°C° 0 mm 4 m/S 766 mmHg 52%
17:00 +8°C° 0 mm 4 m/S 766 mmHg 57%
18:00 +9°C° 0 mm 3 m/S 766 mmHg 61%
19:00 +8°C° 0 mm 3 m/S 766 mmHg 65%
20:00 +7°C° 0 mm 3 m/S 766 mmHg 70%
21:00 +5°C° 0 mm 4 m/S 767 mmHg 74%
22:00 +4°C° 0 mm 3 m/S 766 mmHg 75%
23:00 +3°C° 0 mm 3 m/S 766 mmHg 77%

17 April, Samstag

Zeit Temperatur Niederschläge Wind Luftdruck Luftfeuchtigkeit
00:00 +2°C° 0 mm 3 m/S 766 mmHg 79%
01:00 +2°C° 0 mm 3 m/S 766 mmHg 81%
02:00 +1°C° 0 mm 3 m/S 766 mmHg 83%
03:00 +2°C° 0 mm 2 m/S 766 mmHg 84%
04:00 +2°C° 0 mm 2 m/S 766 mmHg 82%
05:00 +2°C° 0 mm 2 m/S 766 mmHg 80%
06:00 +2°C° 0 mm 3 m/S 767 mmHg 78%
07:00 +3°C° 0 mm 3 m/S 766 mmHg 69%
08:00 +5°C° 0 mm 4 m/S 766 mmHg 61%
09:00 +7°C° 0 mm 5 m/S 766 mmHg 52%
10:00 +8°C° 0 mm 5 m/S 766 mmHg 50%
11:00 +9°C° 0 mm 5 m/S 766 mmHg 48%
12:00 +10°C° 0 mm 5 m/S 765 mmHg 46%
13:00 +10°C° 0 mm 5 m/S 765 mmHg 48%
14:00 +12°C° 0 mm 5 m/S 765 mmHg 50%
15:00 +12°C° 0 mm 5 m/S 765 mmHg 52%
16:00 +11°C° 0 mm 4 m/S 765 mmHg 55%
17:00 +10°C° 0 mm 3 m/S 765 mmHg 59%
18:00 +9°C° 0 mm 3 m/S 765 mmHg 62%
19:00 +9°C° 0 mm 2 m/S 765 mmHg 63%
20:00 +9°C° 0 mm 2 m/S 765 mmHg 63%
21:00 +8°C° 0 mm 2 m/S 765 mmHg 64%
22:00 +8°C° 0 mm 2 m/S 765 mmHg 65%
23:00 +8°C° 0 mm 2 m/S 765 mmHg 66%

18 April, Sonntag

Zeit Temperatur Niederschläge Wind Luftdruck Luftfeuchtigkeit
00:00 +8°C° 0 mm 2 m/S 765 mmHg 68%
01:00 +7°C° 0 mm 2 m/S 765 mmHg 69%
02:00 +7°C° 0 mm 2 m/S 765 mmHg 71%
03:00 +7°C° 0 mm 2 m/S 765 mmHg 72%
04:00 +7°C° 0 mm 2 m/S 765 mmHg 74%
05:00 +7°C° 0 mm 2 m/S 765 mmHg 76%
06:00 +7°C° 0 mm 2 m/S 765 mmHg 78%
07:00 +8°C° 0 mm 2 m/S 765 mmHg 74%
08:00 +9°C° 0 mm 2 m/S 765 mmHg 70%
09:00 +10°C° 0 mm 3 m/S 765 mmHg 66%
10:00 +11°C° 0 mm 3 m/S 765 mmHg 62%
11:00 +11°C° 0 mm 3 m/S 765 mmHg 58%
12:00 +13°C° 0 mm 2 m/S 765 mmHg 54%
13:00 +13°C° 0 mm 2 m/S 765 mmHg 55%
14:00 +13°C° 0 mm 2 m/S 764 mmHg 57%
15:00 +13°C° 0 mm 2 m/S 764 mmHg 58%
16:00 +12°C° 0 mm 2 m/S 764 mmHg 62%
17:00 +12°C° 0 mm 2 m/S 764 mmHg 65%
18:00 +10°C° 0 mm 2 m/S 764 mmHg 68%
19:00 +10°C° 0 mm 2 m/S 764 mmHg 70%
20:00 +10°C° 0 mm 2 m/S 764 mmHg 72%
21:00 +9°C° 0 mm 2 m/S 764 mmHg 73%
22:00 +9°C° 0 mm 2 m/S 764 mmHg 75%
23:00 +9°C° 0 mm 2 m/S 764 mmHg 77%

19 April, Montag

Zeit Temperatur Niederschläge Wind Luftdruck Luftfeuchtigkeit
00:00 +10°C° 0 mm 1 m/S 764 mmHg 79%
01:00 +9°C° 0 mm 1 m/S 764 mmHg 81%
02:00 +8°C° 0 mm 2 m/S 764 mmHg 84%
03:00 +7°C° 0 mm 2 m/S 763 mmHg 86%
04:00 +7°C° 0 mm 2 m/S 763 mmHg 87%
05:00 +7°C° 0 mm 2 m/S 763 mmHg 88%
06:00 +7°C° 0 mm 2 m/S 763 mmHg 89%
07:00 +9°C° 0 mm 2 m/S 763 mmHg 81%
08:00 +10°C° 0 mm 2 m/S 763 mmHg 74%
09:00 +12°C° 0 mm 3 m/S 763 mmHg 66%
10:00 +12°C° 0 mm 3 m/S 762 mmHg 64%
11:00 +13°C° 0 mm 3 m/S 762 mmHg 62%
12:00 +13°C° 0 mm 3 m/S 762 mmHg 60%
13:00 +14°C° 0 mm 3 m/S 761 mmHg 58%
14:00 +14°C° 0 mm 3 m/S 761 mmHg 55%
15:00 +16°C° 0 mm 2 m/S 760 mmHg 53%
16:00 +15°C° 0.1 mm 2 m/S 760 mmHg 59%
17:00 +13°C° 0.1 mm 3 m/S 760 mmHg 65%
18:00 +12°C° 0.1 mm 3 m/S 760 mmHg 71%
19:00 +12°C° 0 mm 2 m/S 760 mmHg 75%
20:00 +10°C° 0 mm 2 m/S 760 mmHg 79%
21:00 +9°C° 0 mm 2 m/S 761 mmHg 83%
22:00 +8°C° 0 mm 2 m/S 761 mmHg 83%
23:00 +8°C° 0 mm 2 m/S 761 mmHg 84%
Mehr zeigen

Wir brauchen deine Erlaubnis

Meteoprog und unser Service Anbieter werden persönliche Daten aufbewahren, so wie Cookies, Geräte Bezeichnung oder ähnliche Technologien von deinem Gerät und Prozess, so wie Persönliche Daten Inhalte und Werbungen, genauso wie social Media und den Verkehr zu analysieren.

  • Aufbewahrung und/oder Zugang zu deiner Geräte Informationen.

    Cookies, Geräte Bezeichnung oder andere Informationen, können aufbewahrt oder Zugang zu deinem Gerät erhalten, für den Grund, der oben angegeben wird.

  • Personalisierte Werbung und Inhalte, Messungen, Einblick in das Publikum und Produkt Entwicklung.

    Werbungen und Inhalte können personalisiert werden, basierend auf ein Profil. Mehr Daten können besser personalisierte Werbungen und Inhalte hinzufügen. Werbung und Inhalte können gezeigt und gemessen werden. Einblicke über das Publikum, welche die Werbung gesehen haben und den Inhalt, können abgeleitet werden. So wie Daten können genutzt werden, um es zu verbessern oder die Benutzer Erfahrung zu verbessern das System und die Software.

Wenn du “Ich stimme zu” klickst, erlaubst du uns, die Cookies zu benutzen die Geräte Bezeichnung, den Web oder ähnliche Technologien zu benutzen. Deine Settings, können in deinem Gerät bei deinem Browser geändert werden.

Für den bestimmten Zweck, berechtigten Interessen beruhen darauf, mehr als auf den Inhalt. Du kannst mehr darüber in unseren Privaten und Cookie Politik lesen.